Weather History for PHTO - January, 2013

Change the Weather History Date:

Thursday, January 10, 2013

  Actual Average Record
Temperature  
Mean Temperature 72 °F 72 °F  
Max Temperature 80 °F 79 °F 85 °F (1997)
Min Temperature 64 °F 64 °F 54 °F (1995)
Degree Days  
Heating Degree Days 0 0  
Month to date heating degree days 0 0  
Since 1 July heating degree days 0 0  
Cooling Degree Days 7 7  
Month to date cooling degree days 62 70  
Year to date cooling degree days 62 70  
Growing Degree Days 22 (Base 50)    
Moisture  
Dew Point 64 °F    
Average Humidity 76    
Maximum Humidity 93    
Minimum Humidity 58    
Precipitation  
Precipitation 0.81 in 0.26 in 2.26 in (1989)
Month to date precipitation 7.23 2.79  
Year to date precipitation 7.23 2.79  
Snow  
Snow 0.00 in - - ()
Month to date snowfall 0.0  
Since 1 July snowfall 0.0  
Snow Depth 0.00 in    
Sea Level Pressure  
Sea Level Pressure 29.99 in    
Wind  
Wind Speed 5 mph (WSW)    
Max Wind Speed 22 mph    
Max Gust Speed 27 mph    
Visibility 9 miles    
Events Rain    
T = Trace of Precipitation, MM = Missing Value Source: NWS Daily Summary

Daily Weather History Graph

Daily Weather History Graph

Search for Another Location

Airport or City:

Trip Planner

Search our weather history database for the weather conditions in past years. The results will help you decide how hot, cold, wet, or windy it might be!

Date:

Astronomy

Jan. 10, 2013 Rise Set
Actual Time 6:57 AM HST 5:58 PM HST
Civil Twilight 6:33 AM HST 6:22 PM HST
Nautical Twilight 6:06 AM HST 6:49 PM HST
Astronomical Twilight 5:39 AM HST 7:16 PM HST
Moon 5:48 AM HST (1/10) 5:16 PM HST (1/10)
Length of Visible Light 11h 49m
Length of Day
11h 01m
Waning Crescent, 1% of the Moon is Illuminated
Jan 10
Waning Crescent
Jan 11
New
Jan 18
First Quarter
Jan 26
Full
Feb 3
Last Quarter

Hourly Weather History & Observations

Time (HST) Temp. Dew Point Humidity Pressure Visibility Wind Dir Wind Speed Gust Speed Precip Events Conditions
12:53 AM 66.9 °F 64.0 °F 90% 30.00 in 10.0 mi WNW 5.8 mph - 0.00 in   Overcast
1:53 AM 66.0 °F 63.0 °F 90% 29.99 in 10.0 mi Calm Calm - 0.01 in   Mostly Cloudy
2:53 AM 66.0 °F 63.0 °F 90% 29.97 in 10.0 mi SW 5.8 mph - 0.00 in   Partly Cloudy
3:53 AM 66.9 °F 63.0 °F 87% 29.97 in 7.0 mi WSW 6.9 mph - 0.10 in Rain Light Rain
4:53 AM 66.0 °F 63.0 °F 90% 29.98 in 4.0 mi SW 4.6 mph - 0.04 in Rain Rain
5:02 AM 66.0 °F 63.0 °F 90% 29.98 in 6.0 mi West 3.5 mph - 0.02 in Rain Light Rain
5:53 AM 66.0 °F 62.1 °F 87% 29.98 in 5.0 mi WSW 6.9 mph - 0.03 in Rain Heavy Rain
6:53 AM 64.0 °F 60.1 °F 87% 30.00 in 10.0 mi West 9.2 mph - 0.04 in   Overcast
7:12 AM 64.0 °F 60.1 °F 87% 30.01 in 10.0 mi WSW 8.1 mph - N/A   Mostly Cloudy
7:22 AM 64.0 °F 60.1 °F 87% 30.01 in 10.0 mi SW 8.1 mph - N/A   Mostly Cloudy
7:53 AM 64.0 °F 60.1 °F 87% 30.01 in 10.0 mi WSW 8.1 mph - N/A   Mostly Cloudy
8:51 AM 68.0 °F 62.6 °F 83% 30.04 in 10.0 mi Variable 4.6 mph - 0.00 in   Overcast
8:53 AM 69.1 °F 63.0 °F 81% 30.04 in 10.0 mi SSW 3.5 mph - 0.00 in   Overcast
9:40 AM 72.0 °F 64.0 °F 76% 30.05 in 10.0 mi West 3.5 mph - 0.00 in   Mostly Cloudy
9:53 AM 73.9 °F 64.9 °F 73% 30.04 in 10.0 mi West 5.8 mph - 0.00 in   Scattered Clouds
10:53 AM 75.9 °F 63.0 °F 64% 30.02 in 10.0 mi Calm Calm - N/A   Scattered Clouds
11:53 AM 79.0 °F 64.0 °F 60% 30.00 in 10.0 mi NE 9.2 mph - N/A   Scattered Clouds
12:53 PM 78.1 °F 63.0 °F 60% 29.97 in 10.0 mi North - - N/A   Mostly Cloudy
1:53 PM 75.9 °F 64.0 °F 67% 29.95 in 10.0 mi NE 6.9 mph - N/A   Mostly Cloudy
2:53 PM 75.9 °F 64.9 °F 69% 29.94 in 10.0 mi Calm Calm - N/A   Mostly Cloudy
3:53 PM 77.0 °F 63.0 °F 62% 29.94 in 10.0 mi NNE 5.8 mph - 0.00 in   Partly Cloudy
4:53 PM 75.0 °F 63.0 °F 66% 29.96 in 10.0 mi NE 5.8 mph - N/A   Scattered Clouds
5:53 PM 73.0 °F 63.0 °F 71% 29.97 in 10.0 mi Calm Calm - N/A   Scattered Clouds
6:08 PM 68.0 °F 63.0 °F 84% 29.98 in 2.5 mi East 17.3 mph 26.5 mph 0.00 in Rain Heavy Rain
6:17 PM 68.0 °F 64.0 °F 87% 29.99 in 1.5 mi ENE 9.2 mph 23.0 mph 0.34 in Rain Heavy Rain
6:24 PM 66.9 °F 64.9 °F 93% 29.99 in 3.0 mi WNW 3.5 mph - 0.49 in Rain Light Rain
6:35 PM 68.0 °F 64.9 °F 90% 29.99 in 10.0 mi West 8.1 mph - 0.49 in   Overcast
6:53 PM 68.0 °F 66.0 °F 93% 29.99 in 10.0 mi West 8.1 mph - 0.49 in   Scattered Clouds
7:53 PM 66.9 °F 64.9 °F 93% 29.99 in 9.0 mi West 5.8 mph - 0.00 in Rain Light Rain
8:00 PM 66.9 °F 64.9 °F 93% 29.99 in 10.0 mi WSW 4.6 mph - 0.01 in Rain Light Rain
8:08 PM 66.9 °F 64.9 °F 93% 29.99 in 10.0 mi West 5.8 mph - 0.01 in   Mostly Cloudy
8:53 PM 68.0 °F 66.0 °F 93% 30.00 in 10.0 mi WNW 10.4 mph - 0.02 in Rain Light Rain
9:18 PM 66.9 °F 64.9 °F 93% 30.00 in 10.0 mi West 6.9 mph - 0.00 in   Scattered Clouds
9:53 PM 66.0 °F 64.9 °F 96% 29.99 in 5.0 mi SSW 4.6 mph - 0.00 in Rain Heavy Rain
10:00 PM 66.0 °F 64.9 °F 96% 30.00 in 7.0 mi SE 6.9 mph - 0.02 in Rain Light Rain
10:53 PM 66.0 °F 64.0 °F 93% 29.99 in 10.0 mi WSW 4.6 mph - 0.04 in   Overcast
11:53 PM 66.0 °F 64.0 °F 93% 29.97 in 7.0 mi West 5.8 mph - 0.03 in Rain Light Rain